Volver al catálogo

STARLINK-36983

ActivoComunicacionesVLEO
NORAD 68323·PAYLOAD·🇺🇸 United States

Lanzado Mar 22, 2026 desde Cape Canaveral Space Force Station

Loading…

Próximos Pases (próximas 24 horas)

TLE

ActualizadoSource: CelesTrak SupGP

Época: Sep 14, 2026, 21:18 UTC

1 68323C 26059C   26257.88798611  .00079251  00000+0  23347-2 0  2575
2 68323  53.1588 181.8936 0001121  99.1647  99.7610 15.34442177    12

Sigue STARLINK-36983 en tiempo real con AllMySat

Download on the App Store